Terminal Aerodrome Forecast
Issued by NWS Pueblo, CO

Home | Current Version | Previous Version | Text Only | Print | Product List | Glossary On
Versions: 1 2 3 4 5 6 7 8 9 10 11 12 13 14 15 16 17 18 19 20 21 22 23 24 25 26 27 28 29 30 31 32 33 34 35 36 37 38 39 40 41 42 43 44 45 46 47 48 49 50
000
FTUS45 KPUB 051318 AAA
TAFPUB
TAF AMD
KPUB 051318Z 0513/0612 08015KT P6SM VCSH SCT004 BKN020
      TEMPO 0513/0515 1 1/2SM -SHRA BR OVC004
     FM052000 12012KT P6SM VCTS SCT020CB BKN030
     FM060300 26006KT P6SM VCSH SCT030 BKN060
     FM060700 VRB05KT P6SM FEW030 BKN080=

USA.gov is the U.S. government's official web portal to all federal, state and local government web resources and services.